TimeAKDT,TemperatureF,Dew PointF,Humidity,Sea Level PressureIn,VisibilityMPH,Wind Direction,Wind SpeedMPH,Gust SpeedMPH,PrecipitationIn,Events,Conditions,WindDirDegrees,DateUTC
12:16 AM,37.4,35.6,93,29.73,10.0,ENE,3.5,-,N/A,,Clear,60,2013-09-11 08:16:00
12:36 AM,39.2,35.6,87,29.73,10.0,Calm,Calm,-,N/A,,Partly Cloudy,0,2013-09-11 08:36:00
12:56 AM,39.2,37.4,93,29.72,10.0,Calm,Calm,-,N/A,,Scattered Clouds,0,2013-09-11 08:56:00
1:16 AM,37.4,35.6,93,29.73,10.0,SE,3.5,-,N/A,,Clear,130,2013-09-11 09:16:00
1:36 AM,37.4,35.6,93,29.73,10.0,Calm,Calm,-,N/A,,Scattered Clouds,0,2013-09-11 09:36:00
1:56 AM,37.4,35.6,93,29.73,10.0,Calm,Calm,-,N/A,,Scattered Clouds,0,2013-09-11 09:56:00
2:16 AM,37.4,35.6,93,29.73,10.0,Calm,Calm,-,N/A,,Partly Cloudy,0,2013-09-11 10:16:00
2:36 AM,37.4,35.6,93,29.74,10.0,Calm,Calm,-,N/A,,Scattered Clouds,0,2013-09-11 10:36:00
2:56 AM,37.4,35.6,93,29.73,10.0,Calm,Calm,-,N/A,,Mostly Cloudy,0,2013-09-11 10:56:00
3:16 AM,37.4,35.6,93,29.73,10.0,Calm,Calm,-,N/A,,Mostly Cloudy,0,2013-09-11 11:16:00
3:36 AM,37.4,35.6,93,29.73,10.0,East,3.5,-,N/A,,Mostly Cloudy,80,2013-09-11 11:36:00
3:56 AM,37.4,35.6,93,29.73,10.0,NNE,4.6,-,N/A,,Overcast,30,2013-09-11 11:56:00
4:16 AM,37.4,35.6,93,29.73,10.0,NNW,3.5,-,N/A,,Overcast,330,2013-09-11 12:16:00
4:36 AM,37.4,37.4,100,29.73,10.0,Calm,Calm,-,N/A,,Overcast,0,2013-09-11 12:36:00
4:56 AM,37.4,35.6,93,29.73,10.0,Calm,Calm,-,N/A,,Overcast,0,2013-09-11 12:56:00
5:16 AM,37.4,37.4,100,29.73,10.0,NNE,4.6,-,N/A,,Overcast,20,2013-09-11 13:16:00
5:36 AM,37.4,35.6,93,29.73,10.0,North,5.8,-,N/A,,Overcast,10,2013-09-11 13:36:00
5:56 AM,37.4,37.4,100,29.73,10.0,NE,4.6,-,N/A,,Overcast,50,2013-09-11 13:56:00
6:16 AM,37.4,35.6,93,29.72,10.0,NNE,4.6,-,N/A,,Overcast,30,2013-09-11 14:16:00
6:36 AM,37.4,37.4,100,29.72,10.0,NE,4.6,-,N/A,,Overcast,50,2013-09-11 14:36:00
6:56 AM,39.2,37.4,93,29.72,10.0,East,3.5,-,N/A,,Overcast,90,2013-09-11 14:56:00
7:16 AM,39.2,37.4,93,29.71,10.0,NE,3.5,-,N/A,,Overcast,50,2013-09-11 15:16:00
7:36 AM,39.2,37.4,93,29.71,10.0,ENE,4.6,-,N/A,,Overcast,70,2013-09-11 15:36:00
7:56 AM,39.2,37.4,93,29.71,10.0,East,4.6,-,N/A,,Overcast,90,2013-09-11 15:56:00
8:16 AM,39.2,37.4,93,29.71,10.0,Calm,Calm,-,N/A,,Overcast,0,2013-09-11 16:16:00
8:36 AM,39.2,37.4,93,29.71,10.0,Calm,Calm,-,N/A,,Overcast,0,2013-09-11 16:36:00
8:56 AM,39.2,37.4,93,29.71,10.0,Calm,Calm,-,N/A,,Overcast,0,2013-09-11 16:56:00
9:16 AM,41.0,37.4,87,29.71,10.0,North,3.5,-,N/A,,Overcast,360,2013-09-11 17:16:00
9:36 AM,41.0,37.4,87,29.70,10.0,NNW,3.5,-,N/A,,Overcast,340,2013-09-11 17:36:00
9:56 AM,41.0,37.4,87,29.70,10.0,NE,3.5,-,N/A,,Overcast,50,2013-09-11 17:56:00
10:16 AM,42.8,37.4,81,29.70,10.0,East,3.5,-,N/A,,Overcast,100,2013-09-11 18:16:00
10:36 AM,42.8,39.2,87,29.69,10.0,ESE,3.5,-,N/A,,Overcast,120,2013-09-11 18:36:00
10:56 AM,44.6,39.2,81,29.68,10.0,ENE,5.8,-,N/A,,Mostly Cloudy,60,2013-09-11 18:56:00
11:16 AM,46.4,39.2,76,29.69,10.0,NE,4.6,-,N/A,,Scattered Clouds,50,2013-09-11 19:16:00
11:36 AM,46.4,39.2,76,29.68,10.0,ENE,4.6,-,N/A,,Mostly Cloudy,60,2013-09-11 19:36:00
11:56 AM,48.2,41.0,76,29.67,10.0,North,4.6,-,N/A,,Partly Cloudy,10,2013-09-11 19:56:00
12:16 PM,51.8,39.2,62,29.66,10.0,ENE,8.1,-,N/A,,Clear,60,2013-09-11 20:16:00
12:36 PM,53.6,39.2,58,29.65,10.0,ENE,8.1,-,N/A,,Clear,70,2013-09-11 20:36:00
12:56 PM,53.6,41.0,62,29.64,10.0,NE,5.8,-,N/A,,Clear,40,2013-09-11 20:56:00
1:16 PM,53.6,39.2,58,29.63,10.0,ENE,5.8,-,N/A,,Clear,60,2013-09-11 21:16:00
1:36 PM,53.6,39.2,58,29.63,10.0,NE,5.8,-,N/A,,Clear,50,2013-09-11 21:36:00
1:56 PM,53.6,39.2,58,29.63,10.0,East,5.8,-,N/A,,Clear,80,2013-09-11 21:56:00
2:16 PM,53.6,39.2,58,29.62,10.0,North,3.5,-,N/A,,Clear,360,2013-09-11 22:16:00
2:36 PM,53.6,39.2,58,29.62,10.0,Calm,Calm,-,N/A,,Clear,0,2013-09-11 22:36:00
2:56 PM,53.6,39.2,58,29.62,10.0,ENE,4.6,-,N/A,,Clear,60,2013-09-11 22:56:00
3:16 PM,53.6,39.2,58,29.62,10.0,Calm,Calm,-,N/A,,Mostly Cloudy,0,2013-09-11 23:16:00
3:36 PM,55.4,39.2,54,29.62,10.0,Calm,Calm,-,N/A,,Overcast,0,2013-09-11 23:36:00
3:56 PM,55.4,39.2,54,29.61,10.0,North,3.5,-,N/A,,Mostly Cloudy,360,2013-09-11 23:56:00
4:16 PM,55.4,39.2,54,29.60,10.0,Calm,Calm,-,N/A,,Clear,0,2013-09-12 00:16:00
4:36 PM,55.4,39.2,54,29.60,10.0,NE,3.5,-,N/A,,Clear,40,2013-09-12 00:36:00
4:56 PM,55.4,39.2,54,29.59,10.0,ENE,3.5,-,N/A,,Clear,60,2013-09-12 00:56:00
5:16 PM,55.4,39.2,54,29.58,10.0,East,3.5,-,N/A,,Scattered Clouds,80,2013-09-12 01:16:00
5:36 PM,55.4,39.2,54,29.58,10.0,East,4.6,-,N/A,,Clear,90,2013-09-12 01:36:00
5:56 PM,55.4,39.2,54,29.57,10.0,Calm,Calm,-,N/A,,Clear,0,2013-09-12 01:56:00
6:16 PM,53.6,39.2,58,29.57,10.0,Calm,Calm,-,N/A,,Clear,0,2013-09-12 02:16:00
6:36 PM,53.6,39.2,58,29.56,10.0,Calm,Calm,-,N/A,,Clear,0,2013-09-12 02:36:00
6:56 PM,53.6,39.2,58,29.56,10.0,Calm,Calm,-,N/A,,Mostly Cloudy,0,2013-09-12 02:56:00
7:16 PM,53.6,39.2,58,29.56,10.0,Calm,Calm,-,N/A,,Mostly Cloudy,0,2013-09-12 03:16:00
7:36 PM,51.8,39.2,62,29.56,10.0,West,3.5,-,N/A,,Scattered Clouds,280,2013-09-12 03:36:00
7:56 PM,51.8,39.2,62,29.55,10.0,Calm,Calm,-,N/A,,Mostly Cloudy,0,2013-09-12 03:56:00
8:16 PM,51.8,41.0,67,29.56,10.0,Calm,Calm,-,N/A,,Overcast,0,2013-09-12 04:16:00
8:36 PM,51.8,39.2,62,29.56,10.0,Calm,Calm,-,N/A,,Overcast,0,2013-09-12 04:36:00
8:56 PM,50.0,41.0,71,29.56,10.0,Calm,Calm,-,N/A,,Scattered Clouds,0,2013-09-12 04:56:00
9:16 PM,50.0,39.2,66,29.55,10.0,SSW,3.5,-,N/A,,Clear,200,2013-09-12 05:16:00
9:36 PM,48.2,41.0,76,29.56,10.0,Calm,Calm,-,N/A,,Mostly Cloudy,0,2013-09-12 05:36:00
9:56 PM,48.2,39.2,71,29.56,10.0,Calm,Calm,-,N/A,,Scattered Clouds,0,2013-09-12 05:56:00
10:16 PM,46.4,41.0,81,29.56,10.0,Calm,Calm,-,N/A,,Mostly Cloudy,0,2013-09-12 06:16:00
10:36 PM,46.4,41.0,81,29.56,10.0,Calm,Calm,-,N/A,,Scattered Clouds,0,2013-09-12 06:36:00
10:56 PM,46.4,39.2,76,29.56,10.0,Calm,Calm,-,N/A,,Scattered Clouds,0,2013-09-12 06:56:00
11:16 PM,46.4,39.2,76,29.57,10.0,Calm,Calm,-,N/A,,Mostly Cloudy,0,2013-09-12 07:16:00
11:36 PM,44.6,42.8,93,29.58,10.0,Calm,Calm,-,N/A,,Scattered Clouds,0,2013-09-12 07:36:00